Home > Weather > Zug > Past weeks

Flag for Switzerland Weather for the Past 2 Weeks in Zug, Zug, Switzerland

Now
41 °F

Quite cool.


Feels Like: 39 °F
Forecast: 42 / 60 °F
Wind: 3 mph from South

Location: Zuerich-Fluntern

Current Time: May 2, 2016 at 6:23:24 AM

Latest Report: May 2, 2016 at 5:00 AM


Visibility: N/A

Pressure: 30.22 "Hg

Humidity: 96%

Dew Point: 40 °F

Location of ZugLocation

Historic Weather in Zug — Graph

°F

Zug Temperature Yesterday

Maximum temperature yesterday: 42 °F (at 5:00 PM)
Minimum temperature yesterday: 41 °F (at 10:00 AM)
Average temperature yesterday: 41 °F

High & Low Weather Summary for the Past Weeks

 TemperatureHumidityPressure
High69 °F (Apr 21, 5:00 PM)98% (Apr 18, 11:00 AM)30.33 "Hg (Apr 18, 11:00 AM)
Low31 °F (Apr 28, 7:00 AM)35% (Apr 28, 3:00 PM)29.69 "Hg (Apr 26, 6:00 PM)
Average47 °F72%30.01 "Hg
* Reported Apr 17 8:00 AM — May 2 4:00 AM, Zug, Weather by CustomWeather, © 2016

Note: Actual official high and low records may vary slightly from our data, if they occured in-between our weather recording intervals... More about our weather records

Advertising

Zug Weather History for the Previous 24 Hours

Scroll right to see more
 ConditionsComfort  
Time TempWeatherWind HumidityBarometerVisibility
4:00 AM
Mon, May 2
41 °FQuite cool.2 mph96%30.23 "HgN/A
3:00 AM41 °FQuite cool.2 mph96%30.23 "HgN/A
2:00 AM41 °FQuite cool.2 mph96%30.23 "HgN/A
1:00 AM41 °FQuite cool.2 mph96%30.24 "HgN/A
12:00 AM41 °FQuite cool.2 mph96%30.23 "HgN/A
11:00 PM
Sun, May 1
41 °FQuite cool.2 mph95%30.24 "HgN/A
10:00 PM42 °FQuite cool.3 mph96%30.22 "HgN/A
9:00 PM42 °FQuite cool.2 mph96%30.22 "HgN/A
8:00 PM42 °FOvercast.5 mph96%30.19 "HgN/A
7:00 PM42 °FQuite cool.6 mph96%30.17 "HgN/A
6:00 PM42 °FQuite cool.6 mph96%30.16 "HgN/A
5:00 PM42 °FQuite cool.6 mph96%30.14 "HgN/A
4:00 PM42 °FQuite cool.3 mph96%30.14 "HgN/A
3:00 PM41 °FQuite cool.3 mph96%30.14 "HgN/A
2:00 PM41 °FOvercast.6 mph96%30.12 "HgN/A
1:00 PM41 °FQuite cool.5 mph93%30.11 "HgN/A
12:00 PM41 °FQuite cool.5 mph93%30.09 "HgN/A
11:00 AM41 °FQuite cool.5 mph93%30.08 "HgN/A
10:00 AM41 °FQuite cool.5 mph94%30.07 "HgN/A
Weather by CustomWeather, © 2016

See weather overviewHow to use our weather pages